H1 CPF 2 NER 2023 10 24 9 297 01 glonass143 H2 2007501 9143 46805 2023 10 24 0 0 0 2023 10 27 23 45 0 900 1 1 0 0 0 1 H9 10 0 60241 0.00000 0 23420081.141 365431.999 10092581.124 10 0 60241 900.00000 0 24487413.997 430641.197 7112817.085 10 0 60241 1800.00000 0 25184013.820 373386.329 3994795.454 10 0 60241 2700.00000 0 25486480.958 244803.507 799108.396 10 0 60241 3600.00000 0 25384341.619 99337.776 -2412116.129 10 0 60241 4500.00000 0 24880480.546 -7809.854 -5576427.164 10 0 60241 5400.00000 0 23991031.230 -23268.849 -8632271.533 10 0 60241 6300.00000 0 22744727.816 101991.548 -11520198.042 10 0 60241 7200.00000 0 21181745.688 410337.648 -14184020.761 10 0 60241 8100.00000 0 19352079.409 935430.945 -16571918.034 10 0 60241 9000.00000 0 17313526.300 1700559.565 -18637445.203 10 0 60241 9900.00000 0 15129360.518 2717413.255 -20340440.928 10 0 60241 10800.00000 0 12865795.411 3985354.659 -21647809.343 10 0 60241 11700.00000 0 10589340.611 5491218.644 -22534162.933 10 0 60241 12600.00000 0 8364164.511 7209648.951 -22982313.857 10 0 60241 13500.00000 0 6249572.172 9103958.841 -22983604.591 10 0 60241 14400.00000 0 4297703.583 11127480.327 -22538071.885 10 0 60241 15300.00000 0 2551547.666 13225346.038 -21654441.289 10 0 60241 16200.00000 0 1043353.948 15336629.633 -20349952.710 10 0 60241 17100.00000 0 -206493.028 17396755.694 -18650020.658 10 0 60241 18000.00000 0 -1190090.932 19340078.652 -16587735.982 10 0 60241 18900.00000 0 -1912104.321 21102523.223 -14203218.872 10 0 60241 19800.00000 0 -2389314.873 22624176.192 -11542835.760 10 0 60241 20700.00000 0 -2649657.720 23851721.342 -8658295.437 10 0 60241 21600.00000 0 -2730785.994 24740615.853 -5605642.040 10 0 60241 22500.00000 0 -2678225.456 25256917.288 -2444164.605 10 0 60241 23400.00000 0 -2543198.259 25378684.925 764755.372 10 0 60241 24300.00000 0 -2380208.713 25096897.048 3958835.790 10 0 60241 25200.00000 0 -2244493.816 24415846.137 7076101.881 10 0 60241 26100.00000 0 -2189446.815 23352995.760 10056086.593 10 0 60241 27000.00000 0 -2264123.034 21938305.517 12841000.167 10 0 60241 27900.00000 0 -2510933.537 20213052.519 15376846.365 10 0 60241 28800.00000 0 -2963624.127 18228198.834 17614464.050 10 0 60241 29700.00000 0 -3645625.089 16042372.994 19510474.415 10 0 60241 30600.00000 0 -4568841.450 13719549.522 21028116.219 10 0 60241 31500.00000 0 -5732935.142 11326522.684 22137953.483 10 0 60241 32400.00000 0 -7125129.902 8930278.950 22818442.678 10 0 60241 33300.00000 0 -8720548.131 6595376.566 23056348.969 10 0 60241 34200.00000 0 -10483066.839 4381440.252 22847003.808 10 0 60241 35100.00000 0 -12366658.296 2340874.115 22194398.991 10 0 60241 36000.00000 0 -14317160.960 516886.873 21111115.148 10 0 60241 36900.00000 0 -16274408.196 -1058089.346 19618085.526 10 0 60241 37800.00000 0 -18174627.285 -2363521.584 17744198.908 10 0 60241 38700.00000 0 -19953009.679 -3391393.865 15525748.388 10 0 60241 39600.00000 0 -21546345.836 -4146294.933 13005735.738 10 0 60241 40500.00000 0 -22895614.818 -4644972.712 10233043.904 10 0 60241 41400.00000 0 -23948420.302 -4915374.599 7261492.889 10 0 60241 42300.00000 0 -24661170.427 -4995214.339 4148796.887 10 0 60241 43200.00000 0 -25000909.340 -4930126.350 955442.700 10 0 60241 44100.00000 0 -24946722.675 -4771486.028 -2256488.643 10 0 60241 45000.00000 0 -24490656.855 -4573988.887 -5424533.673 10 0 60241 45900.00000 0 -23638112.665 -4393091.896 -8487067.455 10 0 60241 46800.00000 0 -22407695.799 -4282426.320 -11384509.162 10 0 60241 47700.00000 0 -20830529.957 -4291292.757 -14060487.906 10 0 60241 48600.00000 0 -18949060.987 -4462345.558 -16462945.388 10 0 60241 49500.00000 0 -16815402.088 -4829565.747 -18545153.293 10 0 60241 50400.00000 0 -14489289.462 -5416609.197 -20266625.198 10 0 60241 51300.00000 0 -12035734.139 -6235600.789 -21593905.124 10 0 60241 52200.00000 0 -9522468.262 -7286426.274 -22501217.493 10 0 60241 53100.00000 0 -7017292.593 -8556552.390 -22970966.074 10 0 60241 54000.00000 0 -4585435.802 -10021383.458 -22994072.638 10 0 60241 54900.00000 0 -2287035.304 -11645140.011 -22570149.170 10 0 60241 55800.00000 0 -174844.088 -13382223.033 -21707500.706 10 0 60241 56700.00000 0 1707741.743 -15179006.999 -20422959.107 10 0 60241 57600.00000 0 3328253.643 -16975986.903 -18741551.270 10 0 60241 58500.00000 0 4666255.301 -18710189.546 -16696008.396 10 0 60241 59400.00000 0 5713936.733 -20317748.294 -14326125.975 10 0 60241 60300.00000 0 6476174.665 -21736533.574 -11677986.967 10 0 60241 61200.00000 0 6970058.363 -22908728.950 -8803063.386 10 0 60241 62100.00000 0 7223902.575 -23783244.884 -5757213.816 10 0 60241 63000.00000 0 7275790.682 -24317869.014 -2599596.498 10 0 60241 63900.00000 0 7171710.873 -24481062.850 608480.665 10 0 60241 64800.00000 0 6963365.141 -24253329.602 3804750.637 10 0 60241 65700.00000 0 6705744.577 -23628095.895 6927195.003 10 0 60241 66600.00000 0 6454574.048 -22612070.540 9915245.302 10 0 60241 67500.00000 0 6263734.656 -21225065.416 12710954.655 10 0 60241 68400.00000 0 6182773.090 -19499286.006 15260117.109 10 0 60241 69300.00000 0 6254603.095 -17478121.189 17513313.299 10 0 60241 70200.00000 0 6513496.007 -15214482.619 19426862.685 10 0 60241 71100.00000 0 6983445.115 -12768762.535 20963664.569 10 0 60241 72000.00000 0 7676972.796 -10206494.474 22093912.298 10 0 60241 72900.00000 0 8594430.977 -7595813.433 22795667.520 10 0 60241 73800.00000 0 9723824.860 -5004820.060 23055283.948 10 0 60241 74700.00000 0 11041168.233 -2498957.315 22867672.812 10 0 60241 75600.00000 0 12511356.568 -138507.422 22236404.942 10 0 60241 76500.00000 0 14089522.689 2023688.074 21173647.327 10 0 60241 77400.00000 0 15722819.652 3944191.377 19699934.868 10 0 60241 78300.00000 0 17352557.578 5590533.922 17843780.997 10 0 60241 79200.00000 0 18916606.187 6942319.806 15641133.768 10 0 60241 80100.00000 0 20351963.309 7991821.735 13134686.986 10 0 60241 81000.00000 0 21597382.246 8744045.070 10373058.766 10 0 60241 81900.00000 0 22595947.985 9216257.766 7409852.696 10 0 60241 82800.00000 0 23297493.763 9437006.317 4302619.305 10 0 60241 83700.00000 0 23660755.843 9444659.617 1111737.810 10 0 60241 84600.00000 0 23655174.894 9285542.669 -2100760.045 10 0 60241 85500.00000 0 23262267.086 9011739.640 -5272400.714 10 0 60242 0.00000 0 22476506.265 8678660.023 -8341489.657 10 0 60242 900.00000 0 21305678.368 8342471.609 -11248319.316 10 0 60242 1800.00000 0 19770693.419 8057510.388 -13936335.777 10 0 60242 2700.00000 0 17904860.834 7873777.454 -16353246.130 10 0 60242 3600.00000 0 15752658.846 7834630.274 -18452040.227 10 0 60242 4500.00000 0 13368048.986 7974766.714 -20191908.173 10 0 60242 5400.00000 0 10812406.068 8318587.812 -21539035.296 10 0 60242 6300.00000 0 8152150.107 8879009.091 -22467259.174 10 0 60242 7200.00000 0 5456179.001 9656771.058 -22958576.196 10 0 60242 8100.00000 0 2793208.862 10640278.350 -23003488.193 10 0 60242 9000.00000 0 229132.502 11805974.603 -22601182.851 10 0 60242 9900.00000 0 -2175494.373 13119237.549 -21759544.806 10 0 60242 10800.00000 0 -4367735.382 14535756.893 -20494997.590 10 0 60242 11700.00000 0 -6304230.017 16003337.302 -18832179.773 10 0 60242 12600.00000 0 -7952744.182 17464050.891 -16803461.769 10 0 60242 13500.00000 0 -9293251.482 18856648.934 -14448312.820 10 0 60242 14400.00000 0 -10318501.687 20119131.588 -11812530.503 10 0 60242 15300.00000 0 -11034054.245 21191367.717 -8947347.818 10 0 60242 16200.00000 0 -11457777.199 22017654.736 -5908435.311 10 0 60242 17100.00000 0 -11618834.206 22549110.883 -2754817.734 10 0 60242 18000.00000 0 -11556203.836 22745799.335 452273.442 10 0 60242 18900.00000 0 -11316794.892 22578494.836 3650589.176 10 0 60242 19800.00000 0 -10953238.349 22030018.602 6778070.377 10 0 60242 20700.00000 0 -10521449.955 21096085.350 9774050.131 10 0 60242 21600.00000 0 -10078066.956 19785626.851 12580427.334 10 0 60242 22500.00000 0 -9677867.450 18120578.271 15142789.089 10 0 60242 23400.00000 0 -9371281.352 16135135.988 17411460.403 10 0 60242 24300.00000 0 -9202097.842 13874517.515 19342461.367 10 0 60242 25200.00000 0 -9205465.744 11393274.675 20898353.919 10 0 60242 26100.00000 0 -9406270.877 8753229.594 22048962.482 10 0 60242 27000.00000 0 -9817958.605 6021118.440 22771955.239 10 0 60242 27900.00000 0 -10441851.218 3266039.727 23053275.377 10 0 60242 28800.00000 0 -11266989.267 556812.002 22887414.331 10 0 60242 29700.00000 0 -12270504.183 -2040650.683 22277521.864 10 0 60242 30600.00000 0 -13418507.523 -4465837.803 21235350.671 10 0 60242 31500.00000 0 -14667460.664 -6665913.213 19781036.089 10 0 60242 32400.00000 0 -15965968.692 -8597664.453 17942714.438 10 0 60242 33300.00000 0 -17256924.414 -10229050.246 15755986.472 10 0 60242 34200.00000 0 -18479913.400 -11540282.236 13263235.315 10 0 60242 35100.00000 0 -19573779.768 -12524396.421 10512811.198 10 0 60242 36000.00000 0 -20479245.182 -13187290.707 7558097.983 10 0 60242 36900.00000 0 -21141470.723 -13547227.381 4456479.066 10 0 60242 37800.00000 0 -21512453.341 -13633821.813 1268222.544 10 0 60242 38700.00000 0 -21553154.993 -13486560.415 -1944692.654 10 0 60242 39600.00000 0 -21235273.695 -13152910.969 -5119786.342 10 0 60242 40500.00000 0 -20542580.597 -12686105.859 -8195298.234 10 0 60242 41400.00000 0 -19471765.469 -12142692.735 -11111396.075 10 0 60242 42300.00000 0 -18032753.776 -11579957.114 -13811346.382 10 0 60242 43200.00000 0 -16248480.904 -11053326.877 -16242624.215 10 0 60242 44100.00000 0 -14154132.137 -10613869.350 -18357939.780 10 0 60242 45000.00000 0 -11795879.615 -10305987.571 -20116161.417 10 0 60242 45900.00000 0 -9229168.702 -10165413.749 -21483116.888 10 0 60242 46800.00000 0 -6516625.025 -10217585.075 -22432257.427 10 0 60242 47700.00000 0 -3725669.356 -10476470.742 -22945171.888 10 0 60242 48600.00000 0 -925939.508 -10943899.753 -23011941.373 10 0 60242 49500.00000 0 1813373.745 -11609417.857 -22631327.905 10 0 60242 50400.00000 0 4426166.210 -12450679.621 -21810793.869 10 0 60242 51300.00000 0 6851926.138 -13434359.021 -20566352.228 10 0 60242 52200.00000 0 9038002.898 -14517540.160 -18922250.679 10 0 60242 53100.00000 0 10941545.040 -15649529.519 -16910496.082 10 0 60242 54000.00000 0 12531028.167 -16774013.357 -14570228.500 10 0 60242 54900.00000 0 13787310.290 -17831469.460 -11946957.072 10 0 60242 55800.00000 0 14704172.069 -18761731.565 -9091672.665 10 0 60242 56700.00000 0 15288320.936 -19506598.435 -6059854.634 10 0 60242 57600.00000 0 15558860.588 -20012377.601 -2910391.125 10 0 60242 58500.00000 0 15546249.691 -20232256.515 295565.853 10 0 60242 59400.00000 0 15290795.043 -20128401.148 3495788.123 10 0 60242 60300.00000 0 14840743.914 -19673693.549 6628178.549 10 0 60242 61200.00000 0 14250056.965 -18853035.111 9631974.106 10 0 60242 62100.00000 0 13575956.340 -17664160.527 12448921.453 10 0 60242 63000.00000 0 12876352.758 -16117928.004 15024402.363 10 0 60242 63900.00000 0 12207260.211 -14238073.134 17308487.427 10 0 60242 64800.00000 0 11620307.079 -12060436.189 19256898.180 10 0 60242 65700.00000 0 11160448.204 -9631694.374 20831859.612 10 0 60242 66600.00000 0 10863973.836 -7007651.026 22002827.257 10 0 60242 67500.00000 0 10756898.822 -4251151.896 22747075.510 10 0 60242 68400.00000 0 10853799.474 -1429713.907 23050136.380 10 0 60242 69300.00000 0 11157146.959 1387036.412 22906080.560 10 0 60242 70200.00000 0 11657165.381 4130009.875 22317635.551 10 0 60242 71100.00000 0 12332221.011 6733278.457 21296138.342 10 0 60242 72000.00000 0 13149727.041 9136568.281 19861323.121 10 0 60242 72900.00000 0 14067526.747 11287519.262 18040947.383 10 0 60242 73800.00000 0 15035697.913 13143618.338 15870262.734 10 0 60242 74700.00000 0 15998703.502 14673726.377 13391339.688 10 0 60242 75600.00000 0 16897798.826 15859135.567 10652258.562 10 0 60242 76500.00000 0 17673594.194 16694113.365 7706181.344 10 0 60242 77400.00000 0 18268665.192 17185910.567 4610322.074 10 0 60242 78300.00000 0 18630100.067 17354233.307 1424835.416 10 0 60242 79200.00000 0 18711875.976 17230201.535 -1788354.854 10 0 60242 80100.00000 0 18476962.867 16854838.324 -4966764.262 10 0 60242 81000.00000 0 17899064.888 16277154.289 -8048568.770 10 0 60242 81900.00000 0 16963924.527 15551908.704 -10973814.118 10 0 60242 82800.00000 0 15670133.076 14737142.685 -13685588.926 10 0 60242 83700.00000 0 14029411.991 13891589.551 -16131137.968 10 0 60242 84600.00000 0 12066352.120 13072072.574 -18262893.317 10 0 60242 85500.00000 0 9817620.812 12331000.783 -20039402.845 10 0 60243 0.00000 0 7330669.555 11714069.132 -21426137.733 10 0 60243 900.00000 0 4661994.234 11258260.125 -22396164.009 10 0 60243 1800.00000 0 1875023.583 10990232.083 -22930663.525 10 0 60243 2700.00000 0 -962280.933 10925160.823 -23019297.085 10 0 60243 3600.00000 0 -3780010.963 11066084.132 -22660401.181 10 0 60243 4500.00000 0 -6508976.930 11403775.942 -21861015.722 10 0 60243 5400.00000 0 -9083342.907 11917155.135 -20636742.472 10 0 60243 6300.00000 0 -11443121.822 12574211.319 -19011437.208 10 0 60243 7200.00000 0 -13536427.899 13333408.174 -17016741.778 10 0 60243 8100.00000 0 -15321393.556 14145504.876 -14691465.243 10 0 60243 9000.00000 0 -16767671.976 14955718.504 -12080826.200 10 0 60243 9900.00000 0 -17857463.897 15706136.002 -9235571.056 10 0 60243 10800.00000 0 -18586027.091 16338273.716 -6210985.512 10 0 60243 11700.00000 0 -18961648.670 16795676.317 -3065818.563 10 0 60243 12600.00000 0 -19005082.856 17026445.275 138859.817 10 0 60243 13500.00000 0 -18748479.223 16985589.974 3340844.898 10 0 60243 14400.00000 0 -18233847.804 16637102.175 6478004.079 10 0 60243 15300.00000 0 -17511126.697 15955666.126 9489480.773 10 0 60243 16200.00000 0 -16635934.406 14927932.069 12316871.917 10 0 60243 17100.00000 0 -15667102.061 13553299.224 14905356.376 10 0 60243 18000.00000 0 -14664089.683 11844174.899 17204752.638 10 0 60243 18900.00000 0 -13684395.143 9825698.251 19170485.812 10 0 60243 19800.00000 0 -12781064.493 7534939.398 20764445.832 10 0 60243 20700.00000 0 -12000407.834 5019606.370 21955720.948 10 0 60243 21600.00000 0 -11380016.083 2336312.561 22721193.033 10 0 60243 22500.00000 0 -10947161.346 -451524.557 23045983.785 10 0 60243 23400.00000 0 -10717647.595 -3276067.557 22923743.614 10 0 60243 24300.00000 0 -10695159.602 -6067628.507 22356777.751 10 0 60243 25200.00000 0 -10871137.454 -8757318.540 21356007.016 10 0 60243 26100.00000 0 -11225182.160 -11279668.856 19940763.508 10 0 60243 27000.00000 0 -11725975.771 -13575115.421 18138424.485 10 0 60243 27900.00000 0 -12332677.960 -15592245.010 15983890.565 10 0 60243 28800.00000 0 -12996740.950 -17289709.688 13518917.400 10 0 60243 29700.00000 0 -13664066.930 -18637730.335 10791312.799 10 0 60243 30600.00000 0 -14277417.442 -19619126.673 7854014.032 10 0 60243 31500.00000 0 -14778973.175 -20229830.763 4764062.719 10 0 60243 32400.00000 0 -15112935.820 -20478862.495 1581496.899 10 0 60243 33300.00000 0 -15228061.523 -20387768.257 -1631818.081 10 0 60243 34200.00000 0 -15080017.832 -19989546.530 -4813396.746 10 0 60243 35100.00000 0 -14633463.395 -19327106.126 -7901354.598 10 0 60243 36000.00000 0 -13863761.250 -18451322.632 -10835618.594 10 0 60243 36900.00000 0 -12758251.841 -17418775.657 -13559102.553 10 0 60243 37800.00000 0 -11317030.661 -16289263.152 -16018823.845 10 0 60243 38700.00000 0 -9553196.417 -15123198.396 -18166938.991 10 0 60243 39600.00000 0 -7492558.091 -13979000.185 -19961677.551 10 0 60243 40500.00000 0 -5172812.160 -12910586.717 -21368155.975 10 0 60243 41400.00000 0 -2642223.545 -11965079.108 -22359055.631 10 0 60243 42300.00000 0 42135.219 -11180811.276 -22915152.057 10 0 60243 43200.00000 0 2816513.697 -10585729.780 -23025685.525 10 0 60243 44100.00000 0 5612893.899 -10196250.494 -22688566.156 10 0 60243 45000.00000 0 8361581.327 -10016619.594 -21910410.005 10 0 60243 45900.00000 0 10993869.406 -10038805.040 -20706405.798 10 0 60243 46800.00000 0 13444667.011 -10242922.290 -19100015.165 10 0 60243 47700.00000 0 15654980.335 -10598175.550 -17122512.371 10 0 60243 48600.00000 0 17574146.519 -11064274.160 -14812372.619 10 0 60243 49500.00000 0 19161726.843 -11593263.744 -12214520.832 10 0 60243 50400.00000 0 20388981.450 -12131694.275 -9379455.613 10 0 60243 51300.00000 0 21239865.123 -12623033.085 -6362265.493 10 0 60243 52200.00000 0 21711503.680 -13010220.478 -3221556.712 10 0 60243 53100.00000 0 21814132.298 -13238259.678 -18313.613 10 0 60243 54000.00000 0 21570499.617 -13256731.393 3185285.990 10 0 60243 54900.00000 0 21014763.900 -13022126.558 6327077.249 10 0 60243 55800.00000 0 20190928.665 -12499898.515 9346112.882 10 0 60243 56700.00000 0 19150884.485 -11666147.820 12183842.529 10 0 60243 57600.00000 0 17952139.859 -10508868.339 14785244.088 10 0 60243 58500.00000 0 16655336.893 -9028701.751 17099885.375 10 0 60243 59400.00000 0 15321656.184 -7239168.166 19082896.004 10 0 60243 60300.00000 0 14010219.598 -5166362.323 20695831.324 10 0 60243 61200.00000 0 12775599.438 -2848127.095 21907412.336 10 0 60243 62100.00000 0 11665537.775 -332737.514 22694128.038 10 0 60243 63000.00000 0 10718970.765 2322851.246 23040689.122 10 0 60243 63900.00000 0 9964440.026 5055120.548 22940324.690 10 0 60243 64800.00000 0 9418957.007 7796383.254 22394916.407 10 0 60243 65700.00000 0 9087367.470 10477359.037 21414967.366 10 0 60243 66600.00000 0 8962242.572 13029824.460 20019405.809 10 0 60243 67500.00000 0 9024301.090 15389228.978 18235226.793 10 0 60243 68400.00000 0 9243345.269 17497169.044 16096977.834 10 0 60243 69300.00000 0 9579671.281 19303617.948 13646097.467 10 0 60243 70200.00000 0 9985895.219 20768818.833 10930118.620 10 0 60243 71100.00000 0 10409117.916 21864761.998 8001751.356 10 0 60243 72000.00000 0 10793337.314 22576184.609 4917862.298 10 0 60243 72900.00000 0 11082006.236 22901050.815 1738370.240 10 0 60243 73800.00000 0 11220626.910 22850491.942 -1474920.546 10 0 60243 74700.00000 0 11159271.657 22448209.238 -4659526.188 10 0 60243 75600.00000 0 10854922.065 21729364.501 -7753504.191 10 0 60243 76500.00000 0 10273526.375 20739005.514 -10696665.009 10 0 60243 77400.00000 0 9391686.711 19530093.158 -13431749.708 10 0 60243 78300.00000 0 8197903.463 18161213.895 -15905550.032 10 0 60243 79200.00000 0 6693322.826 16694074.628 -18069948.441 10 0 60243 80100.00000 0 4891954.765 15190886.079 -19882857.410 10 0 60243 81000.00000 0 2820350.994 13711745.319 -21309039.515 10 0 60243 81900.00000 0 516755.444 12312127.865 -22320792.430 10 0 60243 82800.00000 0 -1970238.078 11040594.782 -22898485.685 10 0 60243 83700.00000 0 -4583465.683 9936810.948 -23030939.172 10 0 60243 84600.00000 0 -7259337.002 9029957.156 -22715636.455 10 0 60243 85500.00000 0 -9930253.759 8337602.019 -21958769.160 10 0 60244 0.00000 0 -12527202.846 7865080.129 -20775112.094 10 0 60244 900.00000 0 -14982417.814 7605401.309 -19187731.085 10 0 60244 1800.00000 0 -17231994.994 7539694.252 -17227531.065 10 0 60244 2700.00000 0 -19218360.452 7638163.898 -14932651.197 10 0 60244 3600.00000 0 -20892482.126 7861521.889 -12347720.307 10 0 60244 4500.00000 0 -22215736.910 8162828.523 -9522986.615 10 0 60244 5400.00000 0 -23161355.327 8489667.738 -6513338.840 10 0 60244 6300.00000 0 -23715384.251 8786562.563 -3377237.824 10 0 60244 7200.00000 0 -23877128.382 8997528.388 -175579.682 10 0 60244 8100.00000 0 -23659052.995 9068655.696 3029487.230 10 0 60244 9000.00000 0 -23086153.100 8950612.696 6175768.293 10 0 60244 9900.00000 0 -22194816.451 8600961.811 9202227.939 10 0 60244 10800.00000 0 -21031228.964 7986191.908 12050170.836 10 0 60244 11700.00000 0 -19649390.156 7083380.239 14664376.135 10 0 60244 12600.00000 0 -18108822.254 5881413.666 16994163.048 10 0 60244 13500.00000 0 -16472069.170 4381717.280 18994367.564 10 0 60244 14400.00000 0 -14802089.965 2598459.057 20626212.047 10 0 60244 15300.00000 0 -13159655.514 558221.046 21858051.550 10 0 60244 16200.00000 0 -11600856.618 -1700850.377 22665983.139 10 0 60244 17100.00000 0 -10174826.957 -4130381.125 23034307.075 10 0 60244 18000.00000 0 -8921775.199 -6673538.739 22955831.347 10 0 60244 18900.00000 0 -7871407.668 -9267162.430 22432013.865 10 0 60244 19800.00000 0 -7041806.787 -11844166.895 21472939.431 10 0 60244 20700.00000 0 -6438811.645 -14336121.449 20097131.488 10 0 60244 21600.00000 0 -6055926.267 -16675898.539 18331201.601 10 0 60244 22500.00000 0 -5874759.248 -18800282.527 16209342.532 10 0 60244 23400.00000 0 -5865976.257 -20652430.696 13772673.736 10 0 60244 24300.00000 0 -5990725.413 -22184084.341 11068450.998 10 0 60244 25200.00000 0 -6202475.530 -23357437.649 8149154.685 10 0 60244 26100.00000 0 -6449189.643 -24146585.975 5071473.750 10 0 60244 27000.00000 0 -6675741.767 -24538492.572 1895204.915 10 0 60244 27900.00000 0 -6826474.198 -24533432.754 -1317911.534 10 0 60244 28800.00000 0 -6847786.407 -24144896.541 -4505396.301 10 0 60244 29700.00000 0 -6690644.943 -23398953.694 -7605251.926 10 0 60244 30600.00000 0 -6312906.910 -22333107.856 -10557175.392 10 0 60244 31500.00000 0 -5681357.381 -20994688.219 -13303737.981 10 0 60244 32400.00000 0 -4773373.149 -19438846.742 -15791508.660 10 0 60244 33300.00000 0 -3578141.169 -17726245.672 -17972098.464 10 0 60244 34200.00000 0 -2097378.935 -15920533.171 -19803105.088 10 0 60244 35100.00000 0 -345525.234 -14085713.536 -21248939.128 10 0 60244 36000.00000 0 1650607.902 -12283522.765 -22281515.937 10 0 60244 36900.00000 0 3852708.399 -10570919.660 -22880799.862 10 0 60244 37800.00000 0 6212326.809 -8997797.457 -23035190.662 10 0 60244 38700.00000 0 8672672.196 -7605011.414 -22741745.031 10 0 60244 39600.00000 0 11170766.866 -6422804.214 -22006229.333 10 0 60244 40500.00000 0 13639870.582 -5469694.180 -20843002.912 10 0 60244 41400.00000 0 16012073.671 -4751871.660 -19274734.499 10 0 60244 42300.00000 0 18220951.335 -4263127.602 -17331957.400 10 0 60244 43200.00000 0 20204168.909 -3985315.918 -15052472.254 10 0 60244 44100.00000 0 21905929.833 -3889328.810 -12480608.941 10 0 60244 45000.00000 0 23279164.593 -3936542.718 -9666362.129 10 0 60244 45900.00000 0 24287369.702 -4080672.749 -6664417.279 10 0 60244 46800.00000 0 24906020.452 -4269956.304 -3533086.206 10 0 60244 47700.00000 0 25123498.940 -4449572.844 -333173.078 10 0 60244 48600.00000 0 24941499.282 -4564196.795 2873206.858 10 0 60244 49500.00000 0 24374893.808 -4560575.170 6023832.682 10 0 60244 50400.00000 0 23451066.605 -4390020.508 9057583.693 10 0 60244 51300.00000 0 22208743.103 -4010713.491 11915622.339 10 0 60244 52200.00000 0 20696365.273 -3389717.709 14542531.308 10 0 60244 53100.00000 0 18970080.967 -2504621.305 16887383.001 10 0 60244 54000.00000 0 17091431.665 -1344735.928 18904721.096 10 0 60244 54900.00000 0 15124835.249 88197.983 20555435.833 10 0 60244 55800.00000 0 13134968.603 1779829.995 21807516.761 10 0 60244 56700.00000 0 11184158.723 3703551.173 22636669.079 10 0 60244 57600.00000 0 9329890.331 5821364.884 23026782.317 10 0 60244 58500.00000 0 7622533.060 8085241.982 22970242.716 10 0 60244 59400.00000 0 6103381.987 10438905.532 22468083.458 10 0 60244 60300.00000 0 4803092.334 12819972.346 21529969.757 10 0 60244 61200.00000 0 3740572.865 15162363.743 20174018.657 10 0 60244 62100.00000 0 2922383.553 17398886.549 18426456.346 10 0 60244 63000.00000 0 2342662.237 19463877.987 16321118.695 10 0 60244 63900.00000 0 1983583.017 21295804.955 13898803.724 10 0 60244 64800.00000 0 1816326.928 22839709.659 11206487.549 10 0 60244 65700.00000 0 1802523.875 24049399.433 8296418.147 10 0 60244 66600.00000 0 1896104.901 24889288.968 5225103.990 10 0 60244 67500.00000 0 2045486.254 25335817.178 2052216.847 10 0 60244 68400.00000 0 2195992.480 25378378.592 -1160569.897 10 0 60244 69300.00000 0 2292415.289 25019729.681 -4350784.396 10 0 60244 70200.00000 0 2281598.985 24275852.459 -7456376.970 10 0 60244 71100.00000 0 2114941.861 23175280.767 -10416933.683 10 0 60244 72000.00000 0 1750706.433 21757917.449 -13174858.340 10 0 60244 72900.00000 0 1156039.424 20073392.200 -15676499.144 10 0 60244 73800.00000 0 308614.778 18179029.347 -17873197.412 10 0 60244 74700.00000 0 -802170.987 16137511.251 -19722237.466 10 0 60244 75600.00000 0 -2174502.664 14014335.750 -21187679.029 10 0 60244 76500.00000 0 -3793979.928 11875174.472 -22241055.958 10 0 60244 77400.00000 0 -5633988.539 9783242.788 -22861927.939 10 0 60244 78300.00000 0 -7656594.470 7796791.340 -23038274.793 10 0 60244 79200.00000 0 -9813924.276 5966823.613 -22766726.169 10 0 60244 80100.00000 0 -12049974.549 4335134.339 -22052622.585 10 0 60244 81000.00000 0 -14302775.391 2932749.707 -20909907.012 10 0 60244 81900.00000 0 -16506818.008 1778833.432 -19360849.377 10 0 60244 82800.00000 0 -18595645.409 880103.046 -17435609.543 10 0 60244 83700.00000 0 -20504498.373 230779.331 -15171647.341 10 0 60244 84600.00000 0 -22172906.487 -186930.557 -12612991.162 10 0 60244 85500.00000 0 -23547116.196 -401838.148 -9809379.387 99